Regional Weather Roundup
Issued by NWS Cleveland, OH

Home | Current Version | Previous Version | Text Only | Print | Product List | Glossary Off
Versions: 1 2 3 4 5 6 7 8 9 10 11 12 13 14 15 16 17 18 19 20 21 22 23 24 25 26 27 28 29 30 31 32 33 34 35 36 37 38 39 40 41 42 43 44 45 46 47 48 49 50

000
ASUS41 KCLE 030810
RWRCLE
OHIO REGIONAL WEATHER ROUNDUP
NATIONAL WEATHER SERVICE WILMINGTON, OH
400 AM EDT SUN MAY 03 2015

NOTE: "FAIR" INDICATES FEW OR NO CLOUDS BELOW 12,000 FEET WITH NO
SIGNIFICANT WEATHER AND/OR OBSTRUCTIONS TO VISIBILITY.

OHZ001>008-015>018-024>027-034-035-043-044-030900-
   NORTHWEST OHIO

CITY           SKY/WX    TMP DP  RH WIND       PRES   REMARKS
DEFIANCE       PTCLDY    51  42  71 SW3       30.04R
FINDLAY        PTCLDY    54  42  64 S5        30.04R
TOLEDO EXPRESS CLEAR     49  41  74 CALM      30.03R
TOLEDO EXEC    CLEAR     53  41  63 SW5       30.04R
LIMA           PTCLDY    52  42  69 CALM      30.05R
$$

OHZ009>014-019>023-028>033-038-089-030900-
   NORTHEAST OHIO

CITY           SKY/WX    TMP DP  RH WIND       PRES   REMARKS
CLE-HOPKINS    CLEAR     51  40  65 S5        30.06R
CLE-LAKEFRONT  CLEAR     58  40  51 S7        30.02S
CUY CO. ARPT   NOT AVBL
LORAIN-ELYRIA  CLEAR     51  41  68 SW6       30.04S
ASHTABULA      CLEAR     50  39  66 CALM      30.05R
AKRON-CANTON   CLEAR     54  41  61 SW3       30.06S
WOOSTER        CLEAR     46  40  79 CALM      30.06S
MANSFIELD      PTCLDY    51  40  65 S5        30.06R
YOUNGSTOWN     CLEAR     58  37  45 S7        30.05S
$$

OHZ042-051>053-060>062-070>072-077>081-030900-
  SOUTHWEST OHIO

CITY           SKY/WX    TMP DP  RH WIND       PRES   REMARKS
CINC-COVINGTON NOT AVBL
CINC-LUNKEN    CLEAR     47  46  97 CALM      30.09R FOG
HAMILTON       CLEAR     47  46  97 CALM      30.08R
DAYTON         PTCLDY    56  44  64 SW6       30.08R
WRIGHT-PAT AFB PTCLDY    48  46  92 CALM      30.07R
DAYTON GENERAL PTCLDY    56  43  61 S3        30.07R
WILMINGTON     PTCLDY    54  42  64 SW5       30.08R
$$

OHZ036-037-039>041-045>050-054>059-063>069-073>076-082>088-030900-
  CENTRAL AND SOUTHEAST OHIO

CITY           SKY/WX    TMP DP  RH WIND       PRES   REMARKS
COLUMBUS       PTCLDY    52  44  74 CALM      30.06S
OSU AIRPORT    CLEAR     52  42  69 CALM      30.06S
BOLTON FIELD   CLEAR     52  43  72 SW3       30.07R
RICKENBACK AFB CLEAR     51  43  75 CALM      30.06S
NEWARK         CLEAR     46  43  89 CALM      30.06S
MARION         CLEAR     50  42  74 S5        30.06R
LANCASTER      CLEAR     47  43  86 CALM      30.08R
ZANESVILLE     CLEAR     46  41  82 CALM      30.07R
NEW PHILLY     CLEAR     47  42  83 CALM      30.07S
$$


USA.gov is the U.S. government's official web portal to all federal, state and local government web resources and services.